EDW264 LSZH-LPMA

Flight info

Callsign EDW264
Flight time N/A
Altitude 33000
Route VEBIT T50 ROTOS Z669 ULMES DCT VADAR DCT NINTU/N0445F350 DCT MEBAK DCT REPSI DCT LERGA DCT MINSO DCT NARAK DCT AGN DCT PIPOR DCT PPN DCT MIRPO DCT DGO DCT NEA DCT ARDID/N0451F370 DCT FTM DCT NASAS DCT LIDRO
Aircraft A320/M-SDE3FGHIRWY/LB1

Departure

Time 2026-05-04 16:53
Airport Zürich Airport (LSZH)

Arrival

Time N/A
Airport Cristiano Ronaldo International Airport (LPMA)
Time Latitude Longitude Altitude Speed Heading
2026-05-04 16:05 47.45337 8.55944 1407 ft 0 kts
2026-05-04 16:36 47.45335 8.55944 1407 ft 1 kts
2026-05-04 16:37 47.45299 8.55941 1415 ft 3 kts 358°
2026-05-04 16:37 47.45279 8.55943 1412 ft 3 kts 349°
2026-05-04 16:37 47.45249 8.55964 1408 ft 2 kts 288°
2026-05-04 16:38 47.45247 8.55978 1412 ft 0 kts 276°
2026-05-04 16:41 47.45253 8.55893 1406 ft 16 kts 276°
2026-05-04 16:42 47.45323 8.55434 1403 ft 16 kts 310°
2026-05-04 16:43 47.45593 8.55236 1404 ft 19 kts 335°
2026-05-04 16:43 47.45695 8.55162 1402 ft 0 kts 334°
2026-05-04 16:45 47.45696 8.55161 1401 ft 2 kts 334°
2026-05-04 16:46 47.45983 8.54957 1398 ft 26 kts 334°
2026-05-04 16:46 47.46380 8.54690 1384 ft 35 kts 336°
2026-05-04 16:47 47.46848 8.54380 1381 ft 39 kts 336°
2026-05-04 16:47 47.47295 8.54076 1385 ft 33 kts 335°
2026-05-04 16:48 47.47518 8.53922 1397 ft 0 kts 335°
2026-05-04 16:48 47.47542 8.53906 1403 ft 10 kts 334°
2026-05-04 16:49 47.47599 8.53707 1406 ft 0 kts 243°
2026-05-04 16:51 47.47591 8.53687 1400 ft 6 kts 240°
2026-05-04 16:51 47.47515 8.53632 1404 ft 5 kts 151°
2026-05-04 16:52 47.47057 8.53938 1384 ft 102 kts 157°
2026-05-04 16:52 47.46235 8.54505 1384 ft 154 kts 155°
2026-05-04 16:53 47.44390 8.55766 1991 ft 178 kts 156°
2026-05-04 16:53 47.44093 8.60587 3315 ft 196 kts 17°
2026-05-04 16:54 47.45416 8.60651 3658 ft 196 kts 339°
2026-05-04 16:55 47.46199 8.53042 5118 ft 235 kts 236°
2026-05-04 16:55 47.44662 8.49334 5672 ft 268 kts 238°
2026-05-04 16:56 47.42771 8.44511 7189 ft 274 kts 238°
2026-05-04 16:56 47.39908 8.37064 9450 ft 282 kts 238°
2026-05-04 16:57 47.38940 8.34553 10156 ft 285 kts 238°
2026-05-04 16:57 47.36913 8.29020 10715 ft 326 kts 240°
2026-05-04 16:58 47.33708 8.19908 12707 ft 337 kts 240°
2026-05-04 16:58 47.32624 8.16837 13397 ft 339 kts 240°
2026-05-04 16:59 47.30421 8.10617 14583 ft 344 kts 240°
2026-05-04 17:00 47.26105 7.97910 16967 ft 351 kts 246°
2026-05-04 17:00 47.23314 7.87880 18641 ft 358 kts 246°
2026-05-04 17:01 47.21394 7.81065 19647 ft 363 kts 246°
2026-05-04 17:01 47.19430 7.74161 20616 ft 367 kts 243°
2026-05-04 17:02 47.16542 7.67959 21566 ft 370 kts 230°
2026-05-04 17:02 47.13326 7.62016 22514 ft 375 kts 230°
2026-05-04 17:03 47.11699 7.59004 22980 ft 377 kts 230°
2026-05-04 17:03 47.10060 7.55979 23438 ft 379 kts 230°
2026-05-04 17:03 47.06758 7.49892 24202 ft 383 kts 230°
2026-05-04 17:04 47.03418 7.43741 24893 ft 388 kts 230°
2026-05-04 17:04 47.00055 7.37560 25579 ft 391 kts 229°
2026-05-04 17:05 46.96626 7.31307 26216 ft 395 kts 229°
2026-05-04 17:05 46.93152 7.24981 26811 ft 400 kts 229°
2026-05-04 17:06 46.89656 7.18620 27460 ft 405 kts 229°
2026-05-04 17:06 46.87887 7.15404 27776 ft 407 kts 229°
2026-05-04 17:07 46.84320 7.08917 28348 ft 411 kts 229°
2026-05-04 17:07 46.83132 7.06759 28532 ft 412 kts 229°
2026-05-04 17:07 46.80725 7.02394 28889 ft 415 kts 229°
2026-05-04 17:07 46.78925 6.99141 29155 ft 416 kts 229°
2026-05-04 17:08 46.77084 6.95815 29423 ft 418 kts 229°
2026-05-04 17:08 46.73434 6.89232 29951 ft 421 kts 229°
2026-05-04 17:08 46.71585 6.85904 30176 ft 422 kts 229°
2026-05-04 17:09 46.69736 6.82582 30394 ft 423 kts 229°
2026-05-04 17:09 46.67882 6.79252 30635 ft 423 kts 229°
2026-05-04 17:09 46.66032 6.75879 30949 ft 421 kts 232°
2026-05-04 17:10 46.62966 6.68693 31594 ft 418 kts 237°
2026-05-04 17:10 46.58459 6.57935 32590 ft 411 kts 237°
2026-05-04 17:11 46.56966 6.54385 32913 ft 409 kts 237°
2026-05-04 17:11 46.55489 6.50871 33033 ft 406 kts 237°
2026-05-04 17:12 46.51176 6.40592 33050 ft 395 kts 237°
2026-05-04 17:13 46.44040 6.23666 33030 ft 394 kts 236°
2026-05-04 17:14 46.38292 6.10140 33041 ft 393 kts 236°
2026-05-04 17:15 46.33983 6.00036 33059 ft 393 kts 236°
2026-05-04 17:16 46.28248 5.86625 33052 ft 392 kts 236°
2026-05-04 17:17 46.22486 5.73252 33018 ft 392 kts 236°
2026-05-04 17:18 46.16707 5.59896 33022 ft 392 kts 236°
2026-05-04 17:19 46.10743 5.46799 33024 ft 390 kts 233°
2026-05-04 17:20 46.04497 5.34010 33015 ft 390 kts 233°
2026-05-04 17:20 45.99889 5.24446 33010 ft 389 kts 234°
2026-05-04 17:21 45.93719 5.11690 33031 ft 388 kts 233°
2026-05-04 17:22 45.90635 5.05360 33119 ft 391 kts 233°
2026-05-04 17:23 45.85950 4.95744 33890 ft 390 kts 234°
2026-05-04 17:23 45.84398 4.92562 34175 ft 389 kts 234°
2026-05-04 17:23 45.81279 4.86193 34609 ft 389 kts 234°
2026-05-04 17:24 45.79740 4.83060 34801 ft 389 kts 234°
2026-05-04 17:24 45.75066 4.73540 35003 ft 389 kts 234°
2026-05-04 17:25 45.73502 4.70363 35025 ft 389 kts 233°
2026-05-04 17:26 45.67276 4.57758 34985 ft 388 kts 233°
2026-05-04 17:27 45.59462 4.41990 34975 ft 388 kts 233°
2026-05-04 17:28 45.53193 4.29431 34974 ft 389 kts 233°
2026-05-04 17:29 45.43785 4.10669 34988 ft 388 kts 233°
2026-05-04 17:31 45.35918 3.95064 34979 ft 388 kts 232°
2026-05-04 17:32 45.28023 3.79539 34994 ft 388 kts 232°
2026-05-04 17:33 45.21772 3.67055 34964 ft 389 kts 233°
2026-05-04 17:34 45.15595 3.54469 34956 ft 388 kts 233°
2026-05-04 17:35 45.07854 3.38833 34942 ft 387 kts 233°
2026-05-04 17:36 45.04765 3.32632 34939 ft 387 kts 233°
2026-05-04 17:36 45.01658 3.26400 34945 ft 387 kts 233°
2026-05-04 17:37 44.98551 3.20196 34938 ft 387 kts 233°
2026-05-04 17:37 44.95433 3.13966 34949 ft 388 kts 233°
2026-05-04 17:38 44.92342 3.07805 34947 ft 387 kts 233°
2026-05-04 17:38 44.89215 3.01594 34962 ft 388 kts 232°
2026-05-04 17:39 44.84524 2.92305 34946 ft 389 kts 233°
2026-05-04 17:39 44.81525 2.85946 34939 ft 390 kts 235°
2026-05-04 17:40 44.78618 2.79476 34942 ft 391 kts 235°
2026-05-04 17:40 44.75684 2.73028 34940 ft 391 kts 234°
2026-05-04 17:41 44.72717 2.66622 34967 ft 391 kts 234°
2026-05-04 17:41 44.70236 2.61285 34945 ft 392 kts 234°
2026-05-04 17:42 44.67249 2.54861 34935 ft 393 kts 234°
2026-05-04 17:42 44.64246 2.48417 34927 ft 394 kts 234°
2026-05-04 17:43 44.61239 2.41976 34936 ft 394 kts 234°
2026-05-04 17:43 44.58255 2.35588 34918 ft 394 kts 234°
2026-05-04 17:44 44.55234 2.29148 34939 ft 394 kts 234°
2026-05-04 17:44 44.52248 2.22788 34937 ft 395 kts 233°
2026-05-04 17:45 44.49219 2.16363 34928 ft 397 kts 233°
2026-05-04 17:45 44.46171 2.09901 34928 ft 398 kts 233°
2026-05-04 17:46 44.43117 2.03438 34927 ft 398 kts 233°
2026-05-04 17:46 44.40045 1.96967 34927 ft 399 kts 233°
2026-05-04 17:47 44.36993 1.90558 34967 ft 398 kts 232°
2026-05-04 17:47 44.33926 1.84118 34963 ft 397 kts 232°
2026-05-04 17:48 44.30864 1.77692 34962 ft 397 kts 232°
2026-05-04 17:48 44.27819 1.71263 34966 ft 397 kts 233°
2026-05-04 17:49 44.24845 1.64766 34961 ft 396 kts 233°
2026-05-04 17:49 44.21908 1.58315 34956 ft 396 kts 233°
2026-05-04 17:50 44.18936 1.51840 34976 ft 396 kts 233°
2026-05-04 17:50 44.15955 1.45391 34973 ft 395 kts 233°
2026-05-04 17:51 44.12979 1.38957 34966 ft 395 kts 233°
2026-05-04 17:51 44.09993 1.32537 34966 ft 395 kts 233°
2026-05-04 17:52 44.07009 1.26118 34962 ft 394 kts 233°
2026-05-04 17:52 44.04039 1.19745 34960 ft 394 kts 233°
2026-05-04 17:53 44.01051 1.13357 34967 ft 395 kts 233°
2026-05-04 17:53 43.98042 1.06941 34948 ft 396 kts 233°
2026-05-04 17:54 43.95050 1.00572 34950 ft 397 kts 233°
2026-05-04 17:54 43.92034 0.94143 34949 ft 397 kts 233°
2026-05-04 17:55 43.89033 0.87776 34956 ft 398 kts 233°
2026-05-04 17:55 43.86096 0.81254 34959 ft 399 kts 236°
2026-05-04 17:56 43.83316 0.74649 34993 ft 400 kts 237°
2026-05-04 17:56 43.80526 0.68042 34978 ft 400 kts 236°
2026-05-04 17:57 43.77686 0.61446 34975 ft 400 kts 236°
2026-05-04 17:57 43.74820 0.54842 34985 ft 400 kts 236°
2026-05-04 17:58 43.71946 0.48235 34988 ft 400 kts 236°
2026-05-04 17:58 43.69088 0.41670 34994 ft 400 kts 236°
2026-05-04 17:59 43.66215 0.35083 35019 ft 401 kts 236°
2026-05-04 18:00 43.61880 0.25181 35000 ft 401 kts 236°
2026-05-04 18:00 43.58993 0.18587 35013 ft 401 kts 236°
2026-05-04 18:01 43.56104 0.11997 35018 ft 401 kts 236°
2026-05-04 18:01 43.53228 0.05467 35020 ft 401 kts 236°
2026-05-04 18:02 43.48883 -0.04376 35026 ft 401 kts 236°
2026-05-04 18:02 43.45966 -0.10957 35009 ft 402 kts 236°
2026-05-04 18:03 43.43030 -0.17544 34996 ft 403 kts 236°
2026-05-04 18:03 43.40097 -0.24130 34997 ft 403 kts 237°
2026-05-04 18:04 43.37190 -0.30654 35002 ft 403 kts 236°
2026-05-04 18:05 43.32805 -0.40465 35004 ft 402 kts 236°
2026-05-04 18:05 43.29870 -0.47013 35007 ft 402 kts 236°
2026-05-04 18:06 43.25462 -0.56831 35007 ft 402 kts 236°
2026-05-04 18:06 43.22526 -0.63341 34995 ft 402 kts 237°
2026-05-04 18:07 43.19576 -0.69850 35014 ft 401 kts 236°
2026-05-04 18:07 43.16642 -0.76325 35025 ft 401 kts 236°
2026-05-04 18:08 43.13692 -0.82825 35037 ft 401 kts 237°
2026-05-04 18:08 43.10756 -0.89277 35031 ft 402 kts 237°
2026-05-04 18:09 43.04849 -1.02225 35022 ft 402 kts 237°
2026-05-04 18:10 43.01888 -1.08690 35026 ft 402 kts 236°
2026-05-04 18:10 42.98900 -1.15199 35038 ft 402 kts 237°
2026-05-04 18:11 42.95945 -1.21610 35035 ft 401 kts 237°
2026-05-04 18:11 42.92971 -1.28061 35038 ft 401 kts 237°
2026-05-04 18:12 42.89998 -1.34501 35034 ft 401 kts 237°
2026-05-04 18:12 42.87026 -1.40927 35019 ft 400 kts 237°
2026-05-04 18:13 42.84042 -1.47340 35012 ft 401 kts 237°
2026-05-04 18:14 42.79552 -1.56959 35027 ft 400 kts 237°
2026-05-04 18:14 42.76567 -1.63354 35025 ft 400 kts 237°
2026-05-04 18:15 42.71865 -1.76949 35014 ft 402 kts 251°
2026-05-04 18:16 42.70227 -1.84243 35016 ft 403 kts 251°
2026-05-04 18:16 42.68583 -1.91507 35048 ft 403 kts 251°
2026-05-04 18:17 42.66082 -2.02486 34978 ft 408 kts 251°
2026-05-04 18:18 42.63551 -2.13598 34981 ft 412 kts 251°
2026-05-04 18:18 42.61820 -2.21036 34984 ft 413 kts 250°
2026-05-04 18:19 42.59101 -2.32142 34998 ft 414 kts 250°
2026-05-04 18:19 42.57278 -2.39572 34988 ft 414 kts 250°
2026-05-04 18:20 42.55485 -2.46923 34995 ft 415 kts 250°
2026-05-04 18:20 42.53661 -2.54367 35001 ft 415 kts 250°
2026-05-04 18:21 42.51832 -2.61796 35010 ft 415 kts 250°
2026-05-04 18:21 42.50008 -2.69214 35022 ft 415 kts 250°
2026-05-04 18:22 42.48170 -2.76638 35014 ft 416 kts 250°
2026-05-04 18:22 42.46324 -2.84073 35014 ft 417 kts 250°
2026-05-04 18:23 42.44216 -2.91375 35014 ft 416 kts 245°
2026-05-04 18:23 42.41786 -2.98507 35015 ft 416 kts 245°
2026-05-04 18:24 42.39371 -3.05587 35036 ft 417 kts 245°
2026-05-04 18:24 42.36945 -3.12692 35037 ft 416 kts 245°
2026-05-04 18:25 42.34521 -3.19785 35029 ft 414 kts 245°
2026-05-04 18:25 42.32112 -3.26819 35034 ft 412 kts 245°
2026-05-04 18:26 42.29693 -3.33845 35030 ft 411 kts 245°
2026-05-04 18:26 42.27277 -3.40836 35024 ft 411 kts 245°
2026-05-04 18:27 42.24859 -3.47813 35039 ft 410 kts 245°
2026-05-04 18:27 42.22445 -3.54768 35032 ft 409 kts 245°
2026-05-04 18:28 42.20055 -3.61656 35027 ft 409 kts 245°
2026-05-04 18:28 42.17645 -3.68593 35024 ft 409 kts 245°
2026-05-04 18:29 42.15623 -3.74376 35022 ft 408 kts 245°
2026-05-04 18:29 42.13219 -3.81222 35001 ft 408 kts 245°
2026-05-04 18:30 42.09581 -3.91576 35016 ft 407 kts 245°
2026-05-04 18:31 42.07152 -3.98481 35018 ft 407 kts 245°
2026-05-04 18:31 42.04740 -4.05298 35015 ft 407 kts 245°
2026-05-04 18:32 42.02300 -4.12166 35016 ft 407 kts 244°
2026-05-04 18:32 41.99766 -4.18963 35015 ft 407 kts 243°
2026-05-04 18:33 41.97162 -4.25721 35012 ft 407 kts 243°
2026-05-04 18:33 41.94567 -4.32462 35001 ft 406 kts 243°
2026-05-04 18:34 41.91984 -4.39223 35006 ft 407 kts 243°
2026-05-04 18:34 41.89417 -4.45943 34978 ft 406 kts 244°
2026-05-04 18:35 41.86841 -4.52678 34994 ft 405 kts 243°
2026-05-04 18:35 41.84250 -4.59413 35002 ft 405 kts 243°
2026-05-04 18:36 41.81656 -4.66128 35001 ft 405 kts 243°
2026-05-04 18:36 41.79066 -4.72826 34994 ft 405 kts 243°
2026-05-04 18:37 41.76472 -4.79525 34995 ft 405 kts 243°
2026-05-04 18:37 41.73878 -4.86206 34991 ft 405 kts 243°
2026-05-04 18:38 41.71278 -4.92886 34992 ft 405 kts 243°
2026-05-04 18:38 41.68689 -4.99523 34998 ft 405 kts 243°
2026-05-04 18:39 41.66080 -5.06203 34968 ft 405 kts 244°
2026-05-04 18:39 41.63472 -5.12869 35008 ft 405 kts 244°
2026-05-04 18:39 41.62166 -5.16201 35220 ft 404 kts 244°
2026-05-04 18:40 41.60862 -5.19518 35423 ft 404 kts 244°
2026-05-04 18:40 41.59551 -5.22844 35590 ft 404 kts 244°
2026-05-04 18:40 41.58239 -5.26171 35737 ft 404 kts 244°
2026-05-04 18:40 41.56929 -5.29490 35897 ft 405 kts 244°
2026-05-04 18:41 41.55614 -5.32820 36047 ft 405 kts 244°
2026-05-04 18:41 41.54299 -5.36147 36193 ft 406 kts 244°
2026-05-04 18:41 41.53423 -5.38361 36276 ft 406 kts 244°
2026-05-04 18:41 41.51655 -5.42824 36459 ft 407 kts 244°
2026-05-04 18:42 41.50333 -5.46156 36597 ft 407 kts 244°